Regional Weather Roundup
Issued by NWS

Home | Current Version | Previous Version | Graphics & Text | Print | Product List | Glossary On
Versions: 1 2 3 4 5 6 7 8 9 10 11 12 13 14 15 16 17 18 19 20 21 22 23 24 25 26 27 28 29 30 31 32 33 34 35 36 37 38 39 40 41 42 43 44 45 46 47 48 49 50
000
ASUS43 KLSX 050857
RWRMO

WEATHER SUMMARY FOR MISSOURI
NATIONAL WEATHER SERVICE SPRINGFIELD MO
300 AM CST MON DEC 05 2016

NOTE: "FAIR" INDICATES FEW OR NO CLOUDS BELOW 12,000 FEET WITH NO
       SIGNIFICANT WEATHER AND/OR OBSTRUCTIONS TO VISIBILITY.
       CURRENT SKY AND/OR WEATHER CONDITIONS ARE NOT AVAILABLE FOR
       CHILLICOTHE AND FARMINGTON.

MOZ001>031-035>038-043-044-053-054-051000-
...NORTHERN AND WESTERN MISSOURI...

CITY           SKY/WX    TMP DP  RH WIND       PRES   REMARKS
KANSAS CTY INT CLEAR     33  30  88 S6        29.94F WCI  28
LEE`S SUMMIT   CLEAR     34  31  88 SW5       29.96F WCI  30
ST JOSEPH      CLEAR     29  28  96 S6        29.94F WCI  23
CHILLICOTHE      N/A     29  28  96 CALM      29.99S

$$
MOZ066>068-077>081-088>096-101>105-051000-
...SOUTHWEST MISSOURI...

CITY           SKY/WX    TMP DP  RH WIND       PRES   REMARKS
SPRINGFIELD    CLOUDY    31  30  96 S7        30.02S FOG     WCI  24
JOPLIN         CLOUDY    34  33  96 S7        30.04S WCI  28

$$
MOZ032>034-039>042-045>050-055>058-069>072-051000-
...CENTRAL MISSOURI...

CITY           SKY/WX    TMP DP  RH WIND       PRES   REMARKS
COLUMBIA       NOT AVBL
JEFFERSON CITY FOG       26  26 100 SE7       30.04F VSB 1/2 WCI  18
ROLLA          CLOUDY    30  30 100 S6        30.02S FOG     WCI  24
SEDALIA        CLEAR     31  29  92 S7        30.01S FOG     WCI  24
WARRENSBURG    FOG       28  28 100 S8        29.99S VSB 1/4 WCI  20

$$
MOZ051-052-059>065-051000-
...EAST CENTRAL MISSOURI...

CITY           SKY/WX    TMP DP  RH WIND       PRES   REMARKS
ST LOUIS INTL  MOCLDY    36  31  82 SW3       30.06R
SPIRIT OF STL  FOG       28  28 100 CALM      30.06S VSB 3/4
ST CHARLES     MOCLDY    31  31 100 CALM      30.06R FOG

$$
MOZ072>076-082>087-097>100-106>115-051000-
...SOUTH CENTRAL AND SOUTHEAST MISSOURI...

CITY           SKY/WX    TMP DP  RH WIND       PRES   REMARKS
CAPE GIRARDEAU MOCLDY    37  32  82 NE3       30.09S
POPLAR BLUFF   CLEAR     36  36 100 CALM      30.08S
WEST PLAINS    FOG       29  27  92 CALM      30.05F VSB 1/4

$$



USA.gov is the U.S. government's official web portal to all federal, state and local government web resources and services.